#timestamp,LO_Frequency,Hit,StdDev 
1505991615.6,286047001.6,P
1505991635.4,286047000.4,N
1505991655.3,286046998.1,N
1505991675.1,286047000.4,N
1505991676.0,286047000.4,N
1505991695.8,286047000.6,N
1505991715.7,286047004.4,N
1505991735.5,286047003.5,N
1505991755.3,286047004.7,N
1505991775.1,286047005.3,N
1505991795.9,286047001.8,N
1505991815.7,286047001.6,N
1505991835.5,286047002.6,N
1505991855.4,286047000.1,N
1505991875.2,286047002.8,N
1505991895.0,286047001.0,N
1505991895.9,286047001.0,N
1505991915.8,286047005.4,N
1505991935.6,286047007.1,Y
1505991955.4,286047004.9,P
1505991975.3,286047007.4,P
1505991995.1,286047003.8,N
1505991996.0,286047003.8,N
1505992015.8,286047002.5,N
1505992035.7,286047004.3,N
1505992055.5,286047002.4,N
1505992075.3,286047002.1,N
1505992095.2,286046997.0,N
1505992115.9,286046995.5,N
1505992135.7,286046993.6,N
1505992155.5,286046995.3,N
1505992175.4,286046999.3,N
1505992195.2,286046996.9,N
1505992215.0,286046999.5,N
1505992215.9,286046999.5,N
1505992235.8,286046995.1,N
1505992255.6,286047001.0,N
1505992275.4,286046999.3,N
1505992295.3,286046995.4,N
1505992315.1,286046997.6,N
1505992316.0,286046997.6,N
1505992335.8,286046997.2,N
1505992355.7,286047000.6,N
1505992375.5,286046997.1,N
1505992395.3,286046997.8,N
1505992415.2,286046997.6,N
1505992435.9,286046996.2,N
1505992455.7,286046994.9,N
1505992475.5,286046995.7,N
1505992495.4,286046999.0,N
1505992515.2,286046997.7,N
1505992535.0,286046993.8,N
1505992535.9,286046993.8,N
1505992555.8,286046995.1,N
1505992575.6,286046995.3,N
1505992595.4,286046992.4,Y
1505992615.3,286046993.6,P
1505992635.1,286046998.4,N
1505992655.8,286047002.3,N
1505992675.7,286047003.9,N
1505992695.5,286047002.3,N
1505992715.3,286047000.7,N
1505992735.2,286046999.5,N
1505992755.9,286046998.9,N
1505992775.7,286046999.5,N
1505992795.6,286046998.5,N
1505992815.4,286046999.4,N
1505992835.2,286046998.2,N
1505992855.1,286046998.4,N
1505992856.0,286046998.4,N
1505992875.8,286046998.1,N
1505992895.6,286046998.3,N
1505992915.5,286046998.6,N
1505992935.3,286047003.5,N
1505992955.1,286047001.6,N
1505992975.8,286047000.4,N
1505992995.7,286047001.9,N
1505993015.5,286047001.0,N
1505993035.3,286046998.8,N
1505993055.2,286047001.4,N
1505993075.9,286047005.6,N
1505993095.7,286047005.9,N
1505993115.6,286047000.2,N
1505993135.4,286046997.2,N
1505993155.2,286046996.9,N
1505993175.1,286046997.7,N
1505993176.0,286046997.7,N
1505993195.8,286046994.5,N
1505993215.6,286046995.3,N
1505993235.5,286046999.3,N
1505993255.3,286046997.5,N
1505993275.1,286046999.4,N
1505993295.8,286047001.2,N
1505993315.7,286046996.7,N
1505993335.5,286046995.7,N
1505993355.3,286046998.7,N
1505993375.2,286046997.3,N
1505993395.9,286046995.2,N
1505993415.7,286046999.1,N
1505993435.6,286047000.4,N
1505993455.4,286047001.1,N
1505993475.2,286047001.0,N
1505993495.1,286046998.6,N
1505993496.0,286046998.6,N
1505993515.8,286046999.4,N
1505993535.6,286047000.2,N
1505993555.5,286047001.1,N
1505993575.3,286047001.0,N
1505993595.1,286047000.3,N
1505993615.9,286047000.9,N
1505993635.7,286047003.9,N
1505993655.5,286047003.8,N
1505993675.3,286047002.0,N
1505993695.2,286047002.2,N
1505993715.0,286046998.7,N
1505993715.9,286046998.7,N
1505993735.7,286046998.5,N
1505993755.6,286046996.7,N
1505993775.4,286046999.3,N
1505993795.2,286046998.5,N
1505993815.1,286047000.2,N
1505993816.0,286047000.2,N
1505993835.8,286047000.2,N
1505993855.6,286047000.3,N
1505993875.5,286047001.9,N
1505993895.3,286046998.6,N
1505993915.1,286046996.5,N
1505993935.9,286046999.6,N
1505993955.7,286046996.6,N
1505993975.5,286046999.1,N
1505993995.4,286047002.6,N
1505994015.2,286047003.6,N
1505994035.0,286047005.4,N
1505994035.9,286047005.4,N
1505994055.8,286047007.4,Y
1505994075.6,286047005.4,P
1505994095.4,286047004.1,N
1505994115.3,286047001.3,N
1505994135.1,286047001.7,N
1505994136.0,286047001.7,N
1505994155.8,286047004.4,N
1505994175.7,286047001.9,N
1505994195.5,286047000.3,N
1505994215.3,286047004.4,N
1505994235.1,286047002.3,N
1505994255.9,286046999.7,N
1505994275.7,286047000.1,N
1505994295.5,286047002.8,N
1505994315.4,286047002.6,N
1505994335.2,286047000.2,N
1505994355.0,286046999.9,N
1505994355.9,286046999.9,N
1505994375.8,286046999.7,N
1505994395.6,286047001.9,N
1505994415.4,286047001.3,N
1505994435.3,286047000.1,N
1505994455.1,286047002.4,N
1505994456.0,286047002.4,N
1505994475.8,286047000.9,N
1505994495.7,286046998.2,N
1505994515.5,286047000.6,N
1505994535.3,286047004.4,N
1505994555.2,286047000.5,N
1505994575.9,286046996.9,N
1505994595.7,286046997.6,N
1505994615.6,286047000.2,N
1505994635.4,286046998.2,N
1505994655.2,286046997.1,N
1505994675.0,286046996.9,N
1505994675.9,286046996.9,N
1505994695.8,286047002.4,N
1505994715.6,286046996.5,N
1505994735.4,286046998.4,N
1505994755.3,286046995.4,N
1505994775.1,286046993.3,Y
1505994795.8,286046992.8,P
1505994815.7,286046993.9,N
1505994835.5,286046993.3,N
1505994855.3,286046995.0,N
1505994875.2,286046995.5,N
1505994895.9,286046999.4,N
1505994915.7,286047000.4,N
1505994935.6,286046996.7,N
1505994955.4,286046998.0,N
1505994975.2,286046999.0,N
1505994995.1,286047001.0,N
1505994996.0,286047001.0,N
1505995015.8,286046998.3,N
1505995035.6,286047000.1,N
1505995055.5,286046998.5,N
1505995075.3,286046998.7,N
1505995095.1,286046998.8,N
1505995115.8,286046998.8,N
1505995135.7,286047001.1,N
1505995155.5,286047000.4,N
1505995175.3,286046994.9,N
1505995195.2,286046994.9,N
